Location: Salillas
(41.9950°N, 0.2228°W)
Time: 06:42:06
(UTC+00:00)

Cosmos 2327 Rocket - Pass Details

Date: 29 March 2020
Orbit: 944 x 1008 km, 83.0° (Epoch: 03 June)

Event Time Altitude Azimuth Distance (km) Brightness Sun altitude
Rises 20:54:14 0° 352° (N) 3,680 8.1 -27.0°
Reaches altitude 10° 20:56:44 10° 353° (N) 2,738 7.3 -27.4°
Maximum altitude 21:03:03 87° 83° (E) 998 4.4 -28.3°
Enters shadow 21:03:35 76° 161° (SSE) 1,021 4.4 -28.4°
